Розенгейм

Germany     47˚52′01″N   12˚07′01″E
temp.,
°C
wind,
m/s
gust,
m/s
humid.,
%
clouds,
%
prec.,
mm/h
press.,
hPa
HPBL,
m
28 november, sat
sat2801:00s22650 0.0 102124
04:00−1˚sse11630 0.0 102121
07:00−1˚s11620 0.0 102022
10:00+4˚ese11510 0.0 1020112
13:00+6˚ne125323 0.0 1017238
16:00ne11760 0.0 101823
19:00−1˚se118140 0.0 101921
22:00−2˚e1184100 0.0 102023
29 november, sun
sun2901:00−3˚e118967 0.0 102025
04:00−3˚ne11949 0.0 102066
07:00−4˚ne11959 0.0 102163
10:00−1˚ne118010 0.0 1021186
13:00nne227210 0.0 1020294
16:00−3˚ne11874 0.0 102123
19:00−4˚se11932 0.0 102321
22:00−4˚ene11930 0.0 102421
30 november, mon
mon3001:00−4˚sse12920 0.0 102529
04:00−4˚sse11920 0.0 102421
07:00−5˚e01930 0.0 102521
10:00−1˚ne11720 0.0 1026172
13:00+2˚nne11610 0.0 1024304
16:00−3˚n11860 0.0 102421
19:00−4˚ssw11900 0.0 102521
22:00−4˚ssw11870 0.0 102621
1 december, tue
tue101:00−3˚ssw11750 0.0 102422
04:00−3˚s126316 0.0 102221
07:00−2˚s225125 0.0 102128
10:00+2˚ese1141100 0.1 1019107
13:00+4˚ene0146100 0.1 1017329
16:00ese115798 0.0 101622
19:00nnw116594 0.0 101722
22:00−1˚s1193100 0.1 101851
2 december, wed
wed201:00−1˚s1196100 0.4 101826
04:00−2˚ese0198100 0.3 101821
07:00−3˚e009798 0.3 101821
10:00ne118368 0.0 1018183
13:00+1˚nne216641 0.0 1017452
16:00−3˚nne11870 0.0 101722
19:00−5˚wsw019323 0.0 101821
22:00−5˚w119156 0.0 101921